Weather History for Teterboro, NJ

Change the Weather History Date:

Monday, October 7, 2013

  Actual Average Record
Temperature  
Mean Temperature 70 °F -  
Max Temperature 82 °F 67 °F 84 °F (2005)
Min Temperature 61 °F 46 °F 37 °F (1999)
Cooling Degree Days 5    
Growing Degree Days 20 (Base 50)    
Moisture  
Dew Point 64 °F    
Average Humidity 79    
Maximum Humidity 88    
Minimum Humidity 62    
Precipitation  
Precipitation 0.31 in - - ()
Sea Level Pressure  
Sea Level Pressure 29.88 in    
Wind  
Wind Speed 10 mph (South)    
Max Wind Speed 23 mph    
Max Gust Speed 33 mph    
Visibility 7 miles    
Events Rain    
Averages and records for this station are not official NWS values.
T = Trace of Precipitation, MM = Missing Value Source: NWS Daily Summary

Daily Weather History Graph

Daily Weather History Graph

Search for Another Location

Airport:

Trip Planner

Search our weather history database for the weather conditions in past years. The results will help you decide how hot, cold, wet, or windy it might be!

Date:

Astronomy

Oct. 07, 2013 Rise Set
Actual Time 6:59 AM EDT 6:28 PM EDT
Civil Twilight 6:31 AM EDT 6:55 PM EDT
Nautical Twilight 6:00 AM EDT 7:27 PM EDT
Astronomical Twilight 5:28 AM EDT 7:58 PM EDT
Moon 9:47 AM EDT (10/7) 8:09 PM EDT (10/7)
Length of Visible Light 12h 23m
Length of Day
11h 28m
Waxing Crescent, 8% of the Moon is Illuminated
Oct 7
Waxing Crescent
Oct 11
First Quarter
Oct 18
Full
Oct 26
Last Quarter
Nov 3
New

Hourly Weather History & Observations

Time (EDT) Temp. Dew Point Humidity Pressure Visibility Wind Dir Wind Speed Gust Speed Precip Events Conditions
12:51 AM 71.1 °F 64.9 °F 81% 30.01 in 7.0 mi SE 8.1 mph - N/A   Scattered Clouds
1:51 AM 70.0 °F 64.9 °F 84% 30.00 in 7.0 mi SE 3.5 mph - N/A   Clear
2:51 AM 70.0 °F 64.9 °F 84% 29.99 in 8.0 mi SSE 4.6 mph - N/A   Partly Cloudy
3:51 AM 70.0 °F 64.9 °F 84% 29.96 in 6.0 mi SSE 4.6 mph - N/A   Haze
4:51 AM 70.0 °F 66.0 °F 87% 29.95 in 8.0 mi South 6.9 mph - N/A   Scattered Clouds
5:51 AM 71.1 °F 66.0 °F 84% 29.94 in 9.0 mi South 9.2 mph - N/A   Mostly Cloudy
6:51 AM 72.0 °F 66.9 °F 84% 29.93 in 8.0 mi SSE 8.1 mph - N/A   Overcast
7:06 AM 71.6 °F 66.2 °F 83% 29.93 in 7.0 mi South 9.2 mph - N/A   Overcast
7:51 AM 73.0 °F 66.0 °F 79% 29.92 in 10.0 mi South 10.4 mph - N/A   Overcast
8:24 AM 73.4 °F 66.2 °F 78% 29.91 in 7.0 mi SSE 8.1 mph - N/A   Overcast
8:46 AM 73.4 °F 66.2 °F 78% 29.90 in 7.0 mi SSE 10.4 mph - N/A   Overcast
8:51 AM 73.9 °F 66.9 °F 79% 29.90 in 7.0 mi SSE 10.4 mph - N/A   Overcast
9:51 AM 75.9 °F 66.9 °F 74% 29.88 in 10.0 mi SSE 13.8 mph 20.7 mph N/A   Overcast
10:51 AM 75.9 °F 66.0 °F 71% 29.86 in 10.0 mi SSE 16.1 mph 24.2 mph N/A   Overcast
11:30 AM 73.4 °F 66.2 °F 78% 29.84 in 2.0 mi SSE 12.7 mph 21.9 mph 0.02 in Rain Light Rain
11:40 AM 73.4 °F 68.0 °F 83% 29.84 in 6.0 mi South 11.5 mph - 0.03 in Rain Light Rain
11:51 AM 73.9 °F 68.0 °F 82% 29.83 in 7.0 mi SSE 11.5 mph - 0.03 in Rain Light Rain
12:20 PM 75.2 °F 69.8 °F 83% 29.82 in 10.0 mi SSE 16.1 mph - 0.00 in   Overcast
12:40 PM 73.4 °F 69.8 °F 88% 29.80 in 2.0 mi SSE 17.3 mph 25.3 mph 0.01 in Rain Light Rain
12:46 PM 73.4 °F 69.8 °F 88% 29.80 in 2.0 mi South 18.4 mph 26.5 mph 0.03 in Rain Light Rain
12:51 PM 73.0 °F 69.1 °F 87% 29.80 in 4.0 mi South 12.7 mph 24.2 mph 0.05 in Rain Light Rain
1:40 PM 77.0 °F 69.8 °F 78% 29.77 in 5.0 mi SSE 18.4 mph 24.2 mph 0.00 in   Haze
1:51 PM 78.1 °F 69.1 °F 74% 29.76 in 5.0 mi South 16.1 mph 24.2 mph 0.00 in   Haze
2:51 PM 78.1 °F 66.9 °F 68% 29.75 in 10.0 mi South 18.4 mph 24.2 mph N/A   Overcast
3:33 PM 71.6 °F 62.6 °F 73% 29.80 in 6.0 mi SW 15.0 mph 31.1 mph 0.04 in Rain Rain
3:51 PM 70.0 °F 64.0 °F 81% 29.80 in 7.0 mi SW 11.5 mph 18.4 mph 0.08 in Rain Light Rain
4:28 PM 68.0 °F 64.4 °F 88% 29.81 in 2.5 mi South 8.1 mph - 0.06 in Rain Heavy Rain
4:40 PM 68.0 °F 64.4 °F 88% 29.81 in 3.0 mi South 9.2 mph - 0.10 in Rain Rain
4:51 PM 68.0 °F 64.0 °F 87% 29.81 in 3.0 mi South 8.1 mph - 0.12 in Rain Light Rain
5:35 PM 69.8 °F 62.6 °F 78% 29.83 in 10.0 mi SSW 11.5 mph - 0.02 in Rain Light Rain
5:51 PM 68.0 °F 61.0 °F 78% 29.86 in 4.0 mi WNW 23.0 mph 33.4 mph 0.02 in Rain Rain
5:58 PM 64.4 °F 57.2 °F 77% 29.87 in 4.0 mi West 16.1 mph 33.4 mph 0.01 in Rain Light Rain
6:07 PM 64.4 °F 57.2 °F 77% 29.88 in 4.0 mi West 10.4 mph 20.7 mph 0.01 in Rain Light Rain
6:22 PM 64.4 °F 57.2 °F 77% 29.88 in 6.0 mi West 8.1 mph - 0.01 in Rain Light Rain
6:51 PM 64.0 °F 57.0 °F 78% 29.88 in 10.0 mi Variable 4.6 mph - 0.01 in   Overcast
7:51 PM 64.0 °F 55.0 °F 73% 29.91 in 10.0 mi West 5.8 mph - N/A   Overcast
8:51 PM 63.0 °F 54.0 °F 72% 29.92 in 10.0 mi West 5.8 mph - N/A   Overcast
9:51 PM 62.1 °F 53.1 °F 72% 29.93 in 10.0 mi West 5.8 mph - N/A   Mostly Cloudy
10:51 PM 62.1 °F 51.1 °F 67% 29.95 in 10.0 mi NW 5.8 mph - N/A   Mostly Cloudy
11:51 PM 61.0 °F 48.0 °F 62% 29.98 in 10.0 mi NW 4.6 mph - N/A   Clear